Theta_e
314 314 315 316 315 316 315 316 316 315 315 315 315 314 314 313 312 312 311 312 309 308 306 305 303 302 302 302 303 304 305 307 310 312 315 318 320 321 323 323 323 322 321 320
315 316 316 316 316 316 315 315 314 315 315 315 314 313 312 312 312 312 313 310 308 306 305 304 303 302 301 301 301 302 302 304 306 308 312 314 315 317 319 320 320 319 319 318
316 318 317 316 315 315 315 315 315 315 314 312 313 314 314 315 314 311 310 308 306 305 304 303 302 301 300 300 300 299 301 302 303 306 308 310 311 312 312 312 315 315 316 315
317 315 315 316 315 315 315 314 315 314 313 314 314 318 317 315 315 311 309 306 305 304 303 302 301 300 300 299 299 298 298 300 301 303 304 305 306 306 306 307 308 310 312 313
317 313 313 314 315 314 316 311 312 312 312 313 315 315 318 316 313 310 308 306 304 302 301 300 300 299 299 298 298 298 298 297 298 299 300 301 301 302 303 304 304 303 304 306
313 309 311 313 312 313 310 311 311 310 311 317 317 318 317 314 311 309 308 306 304 302 300 300 299 298 297 297 296 295 295 296 296 296 297 297 298 299 300 300 300 301 302 302
315 313 311 310 312 311 311 312 317 319 317 319 317 317 317 313 310 309 308 305 302 301 299 297 297 297 297 296 296 295 293 293 294 295 295 295 295 296 296 296 297 298 298 299
318 318 313 309 312 314 314 316 318 318 316 316 316 318 317 312 308 307 305 303 301 300 299 297 297 297 296 295 294 293 292 291 292 292 293 292 293 293 294 294 294 295 295 296
315 314 311 311 311 312 314 315 314 315 309 313 316 315 314 310 308 306 304 301 300 300 299 298 296 296 295 294 293 292 291 290 290 290 291 290 290 289 289 290 290 292 292 293
317 319 316 311 310 309 311 310 316 316 322 316 315 314 313 313 310 307 303 300 299 297 297 297 295 294 293 292 292 291 290 288 288 289 289 288 287 287 286 286 286 286 287 290
314 318 315 313 314 313 310 312 312 313 314 315 315 312 311 310 308 303 300 299 297 296 294 295 295 292 291 290 290 289 289 288 286 286 287 287 286 285 284 284 284 284 285 285
313 314 312 313 310 309 310 312 313 315 313 313 315 315 309 306 303 301 300 299 297 296 293 292 293 292 290 289 289 288 287 287 286 285 286 286 285 285 285 284 283 284 284 284
313 312 309 306 306 313 315 313 312 312 314 317 317 314 307 304 301 300 302 300 299 296 292 291 291 291 290 289 288 288 287 287 286 286 285 285 284 284 284 283 283 283 283 284
310 310 307 306 305 307 307 307 307 310 312 308 308 308 307 308 308 305 302 300 297 295 292 291 290 290 290 290 289 288 287 287 287 286 285 285 284 283 283 282 282 282 282 282
308 307 308 308 307 306 305 305 305 306 306 307 305 304 305 305 303 298 295 295 295 295 292 290 289 289 290 290 290 289 288 287 287 286 285 284 284 284 283 283 282 282 281 281
304 299 302 298 302 302 302 301 301 301 301 302 303 303 302 296 294 295 295 293 293 291 290 291 289 289 289 289 289 289 288 287 287 286 285 285 284 284 283 282 282 281 281 280
300 298 293 295 299 297 293 297 297 297 298 298 299 298 293 294 293 291 290 291 291 291 290 289 289 289 289 289 289 289 288 287 286 286 285 284 283 283 282 282 281 281 279 279
297 294 294 292 290 292 294 296 295 295 295 294 295 290 290 290 290 290 290 289 290 290 289 289 289 289 290 289 288 287 286 285 284 284 283 283 283 282 282 281 281 280 279 278
297 297 296 291 289 293 295 294 294 293 293 293 292 293 290 289 289 288 289 289 290 289 289 289 289 289 289 288 286 284 283 282 282 282 281 281 280 280 279 279 279 279 278 277
292 294 293 287 291 287 293 291 292 293 292 290 288 287 289 290 287 286 290 289 289 289 289 289 289 288 287 284 283 281 280 280 279 279 278 277 277 276 276 276 276 276 276 276
286 286 293 293 293 291 292 290 291 288 290 289 287 288 288 289 288 288 288 288 289 289 289 288 286 285 283 281 279 278 277 276 276 275 273 272 271 271 271 271 271 271 271 272
289 286 285 286 287 292 291 290 291 291 292 290 290 289 289 288 288 288 287 287 287 287 285 284 283 281 279 277 275 274 274 273 271 270 269 268 267 266 266 267 267 267 267 268
289 289 286 289 288 291 290 290 290 291 289 290 290 289 288 288 288 287 286 287 285 283 282 280 278 277 276 274 273 272 271 269 268 267 266 265 264 264 264 264 264 265 265 265
290 289 290 289 290 290 290 290 290 289 289 289 289 288 288 287 287 287 287 285 283 281 278 277 275 273 272 272 270 269 268 267 266 265 264 264 264 263 264 264 264 264 264 264
291 290 289 290 291 290 290 290 290 290 289 288 288 288 287 286 287 286 283 280 279 277 275 274 272 271 270 269 268 267 266 265 264 263 263 263 263 263 263 263 264 264 265 265
292 292 291 291 290 290 290 289 289 289 288 287 287 287 284 283 283 281 279 277 275 274 272 270 269 269 268 267 266 266 265 264 263 263 263 263 262 262 262 263 263 264 265 266
Wind_Speed
5 4 6 11 12 11 4 8 10 9 9 10 10 9 9 12 14 18 12 6 16 16 17 25 25 25 26 31 29 27 21 14 3 1 7 10 10 10 15 14 17 19 21 26
3 6 13 9 8 9 8 9 10 8 7 6 8 10 15 17 14 11 2 14 14 13 15 18 20 23 25 26 29 30 27 20 16 5 5 2 1 5 8 14 15 15 18 21
9 7 7 4 5 10 9 9 9 9 7 7 6 7 9 11 7 15 17 16 16 13 10 9 17 23 25 30 30 30 27 25 20 13 7 3 1 2 3 2 7 11 15 15
9 4 4 5 9 6 8 6 3 3 3 4 8 7 2 10 3 14 13 12 10 9 9 9 15 20 23 27 28 29 27 25 20 16 15 12 11 8 7 4 5 8 11 19
1 3 2 5 6 2 2 5 4 4 6 6 8 5 4 7 11 9 9 9 9 8 8 9 13 18 22 26 27 26 28 29 24 20 15 13 12 12 10 10 5 5 8 13
7 4 3 4 1 2 4 4 7 8 3 3 7 4 3 4 7 6 7 9 8 8 8 10 16 19 24 25 26 27 26 27 26 26 22 17 13 12 12 12 12 10 9 10
4 7 4 1 2 3 2 3 4 3 2 5 7 6 6 3 11 11 13 10 9 8 7 8 9 16 20 21 21 22 24 25 23 21 21 23 18 19 16 14 13 12 12 11
4 5 6 5 2 2 5 3 3 5 2 7 5 7 5 5 13 15 14 11 9 8 7 7 11 14 15 15 16 17 19 21 22 22 21 19 22 25 23 21 17 14 13 12
3 2 3 2 2 3 2 3 1 2 2 1 5 6 10 8 10 11 12 10 8 7 6 6 10 11 10 10 12 13 15 18 19 18 18 22 26 24 21 21 21 20 19 17
3 4 3 3 4 3 2 1 2 0 3 5 5 5 7 8 9 11 10 8 7 6 6 6 8 8 7 8 9 11 11 14 15 16 18 20 22 21 21 24 23 23 22 21
4 0 3 5 3 2 2 3 4 4 5 3 9 7 5 7 8 9 7 6 4 3 2 2 5 6 6 7 9 9 10 13 16 17 16 16 17 18 22 23 22 22 22 22
2 1 4 7 10 8 7 11 6 4 6 6 11 13 5 9 7 7 6 6 6 4 3 3 5 6 7 7 9 9 10 12 14 14 13 14 16 19 20 23 23 23 23 23
2 1 2 9 2 4 3 3 4 8 0 9 9 6 5 7 6 6 7 7 5 4 5 4 3 3 4 7 10 12 13 13 15 16 17 16 16 16 18 20 20 22 24 24
3 2 5 8 9 9 6 12 12 3 5 10 14 18 22 7 6 8 7 7 6 5 4 1 2 4 6 7 9 12 15 15 18 19 22 24 24 24 24 25 25 26 25 24
3 6 7 13 13 13 10 14 16 13 15 15 23 22 23 21 12 2 3 6 5 5 6 6 2 2 7 8 7 10 14 16 17 19 23 27 28 29 30 32 32 32 31 30
4 4 1 7 4 8 15 21 16 17 20 21 21 23 17 6 5 3 4 4 2 4 5 3 5 5 8 9 11 14 16 18 18 22 26 30 31 34 36 35 34 34 35 35
2 3 2 6 1 3 8 19 18 15 18 17 18 12 2 3 4 5 4 3 5 5 4 5 5 8 8 5 6 9 13 14 16 22 28 30 29 31 33 35 38 39 34 35
4 4 2 4 4 4 9 2 4 8 10 5 1 3 5 3 2 2 4 7 6 3 3 4 6 11 14 5 7 10 12 15 20 24 26 28 28 30 33 34 35 37 35 36
14 7 4 3 6 8 12 8 9 5 12 1 3 6 4 5 5 5 5 4 1 3 5 7 8 8 6 7 8 12 14 14 18 23 26 26 27 30 33 33 34 35 34 35
7 11 6 2 4 7 1 5 5 2 10 6 6 4 3 2 1 5 4 4 4 7 9 9 10 5 7 8 10 16 18 18 20 22 23 25 27 31 32 33 34 35 34 37
3 1 11 12 7 7 1 5 5 4 10 2 5 4 4 4 6 9 6 6 10 10 5 3 6 7 8 12 17 18 17 17 19 24 28 29 28 28 31 34 34 35 37 38
6 5 4 2 3 10 3 4 6 5 3 6 6 8 8 7 8 6 8 6 7 2 5 6 9 8 9 14 20 17 17 19 24 26 26 28 30 30 29 31 33 33 33 34
3 7 4 8 5 4 6 7 8 4 4 6 7 9 9 9 7 7 7 5 5 6 4 6 10 16 16 18 19 20 24 27 29 29 28 28 28 27 27 29 30 30 28 29
5 8 7 1 8 13 17 14 10 11 11 8 7 7 6 8 8 7 3 2 3 4 4 7 12 15 18 20 22 23 29 29 29 29 28 28 28 29 27 27 27 28 28 28
9 3 9 14 14 16 17 13 14 15 15 11 9 8 9 8 7 4 4 3 2 2 4 8 12 14 17 23 26 28 29 29 28 27 27 27 26 28 30 29 28 29 31 31
14 21 14 13 12 14 14 11 9 9 9 8 7 5 3 4 5 4 3 4 2 1 7 11 13 16 22 25 27 29 27 27 28 26 26 27 30 29 29 30 31 31 34 36
Wind_Direction
203 208 206 227 231 245 322 299 296 299 304 289 293 308 291 274 281 292 283 285 94 82 72 53 42 33 30 27 32 30 30 23 32 197 226 230 237 234 230 229 230 234 228 217
139 225 235 262 297 300 290 295 282 274 277 331 297 295 286 279 269 256 289 66 75 68 56 50 45 37 35 34 32 32 34 36 43 31 56 111 75 218 235 226 232 237 241 225
224 253 316 260 262 273 265 260 280 286 336 288 276 262 258 264 249 78 73 75 64 60 56 45 40 38 35 33 35 36 36 36 33 32 41 64 265 10 338 342 247 239 240 237
228 302 294 262 259 256 278 293 308 308 317 238 49 300 277 265 310 89 84 73 63 64 62 50 38 37 38 40 43 41 38 39 40 46 41 32 44 44 10 320 256 254 256 246
201 138 150 232 236 108 240 2 326 286 259 300 246 252 251 232 124 119 97 93 90 79 71 57 52 49 41 38 43 45 46 41 36 39 45 42 44 39 21 21 354 317 274 262
245 138 213 219 53 212 44 284 256 239 214 266 230 206 333 62 151 113 104 96 90 78 67 66 59 48 42 40 37 38 38 43 38 35 36 33 35 50 44 18 3 337 305 293
157 198 181 128 208 129 132 274 323 310 147 219 42 330 247 201 164 157 133 108 89 73 62 56 48 48 43 35 35 36 35 36 38 38 32 35 35 43 37 28 10 358 351 338
228 302 134 169 236 76 205 210 190 257 244 295 327 247 234 88 84 89 95 98 88 75 69 64 56 53 52 45 37 38 41 36 32 29 31 30 37 39 36 33 21 5 346 333
346 237 115 138 60 118 13 171 339 278 337 66 242 272 297 132 93 97 96 81 75 71 69 68 72 63 55 52 55 45 39 41 40 33 28 23 31 32 30 33 25 15 8 353
44 299 290 112 126 221 217 42 332 153 235 251 253 294 268 43 138 106 88 87 79 54 45 61 69 65 69 62 58 52 52 43 40 41 39 32 28 23 22 28 21 17 12 5
69 245 243 346 192 194 242 251 217 246 215 245 274 266 60 78 87 101 97 96 104 102 84 86 109 89 64 56 52 44 42 35 25 23 28 29 24 19 21 20 11 9 8 5
127 272 260 246 291 287 266 270 250 220 260 255 259 265 46 101 104 128 163 178 169 154 28 17 57 75 51 26 35 34 24 27 18 13 8 17 11 8 6 3 358 357 357 358
123 186 298 322 286 34 111 54 326 315 274 256 270 260 134 138 170 186 216 208 203 163 174 187 151 116 68 30 14 8 6 2 359 356 354 353 353 352 344 340 340 340 343 342
32 235 193 229 258 338 316 302 287 209 275 285 269 285 288 256 222 230 235 234 202 174 197 248 320 23 5 18 3 355 350 352 344 341 342 338 339 335 333 328 328 328 331 329
188 242 219 258 274 290 296 280 279 275 266 260 273 277 276 287 303 37 105 90 125 203 212 215 171 319 307 307 310 317 322 328 325 323 330 331 330 329 329 328 326 322 323 323
197 251 243 281 271 277 275 270 270 270 268 266 267 269 285 13 53 72 58 44 356 13 349 275 176 230 260 267 277 282 289 299 304 307 314 318 320 322 321 320 318 316 316 316
275 159 99 254 136 317 294 253 249 253 255 259 268 274 347 21 53 61 40 319 288 283 315 320 252 235 247 258 298 299 296 293 289 290 299 306 308 307 307 309 310 308 307 308
207 141 161 258 67 241 250 212 318 288 282 284 262 167 188 175 11 347 282 256 251 274 319 313 322 315 308 300 321 310 305 304 299 296 297 298 299 300 301 299 295 295 299 300
224 211 236 210 204 279 302 292 293 308 290 25 263 191 159 23 319 277 260 73 48 278 266 278 299 336 7 355 337 324 319 313 306 302 303 304 303 300 299 296 293 291 292 289
201 214 202 180 212 226 125 95 139 98 272 223 151 135 107 311 261 266 337 333 301 295 292 295 313 337 7 4 335 324 320 314 308 307 308 305 303 301 300 297 295 294 292 288
139 249 220 236 246 262 190 124 110 123 270 195 139 183 221 212 215 248 255 262 265 263 289 39 13 15 7 340 326 326 316 310 311 306 304 304 304 302 299 297 294 293 291 288
161 174 212 179 241 274 154 111 167 212 169 178 207 233 250 276 270 259 256 257 261 85 58 12 345 346 332 328 328 322 315 314 311 311 308 306 305 303 299 295 294 292 290 287
253 202 195 187 200 207 190 207 218 237 217 248 228 247 250 261 249 260 248 254 93 85 40 351 332 324 325 327 328 321 318 318 317 314 311 308 305 302 299 296 295 294 292 287
259 232 235 91 247 254 264 262 261 267 265 248 248 257 256 248 250 241 194 116 79 45 42 336 325 324 318 323 322 318 318 317 315 311 309 309 307 304 301 296 293 292 291 288
228 159 234 246 252 257 261 259 262 267 267 268 258 243 243 230 235 182 145 132 120 49 335 320 321 316 311 318 318 321 321 321 314 310 308 308 307 306 302 296 293 291 287 286
236 240 241 244 241 244 248 243 230 234 238 234 244 239 206 170 172 131 146 125 105 353 306 314 314 314 314 317 316 319 324 324 316 307 309 309 306 302 300 299 297 294 294 296